Flag for U.S.A. Weather past 2 weeks in St. Petersburg, Florida, U.S.A.

Now
71 °F

Sunny.


Feels Like: 77 °F
Forecast: 58 / 70 °F
Wind: 7 mph from Northwest

Location: Whitted Airport

Current Time: Dec 17, 2014 at 3:24:48 PM

Latest Report: Dec 17, 2014 at 2:53 PM


Visibility: 10 mi

Pressure: 30.10 "Hg

Humidity: 55%

Dew point: 54 °F

Location of St. PetersburgLocation

Historic Weather in St. Petersburg — Graph

°F

St. Petersburg temperature yesterday

Maximum temperature yesterday: 68 °F (at 2:53 PM)
Minimum temperature yesterday: 55 °F (at 3:53 AM)
Average temperature yesterday: 60 °F

Past Weeks' High & Low Weather Summary

 TemperatureHumidityPressure
High77 °F (Dec 6, 3:53 PM)100% (Dec 16, 7:53 AM)30.28 "Hg (Dec 16, 7:53 AM)
Low51 °F (Dec 13, 5:53 AM)30% (Dec 13, 3:53 PM)30.03 "Hg (Dec 8, 3:58 PM)
Average63 °F77%30.13 "Hg
* Reported Dec 2 1:53 PM — Dec 17 1:53 PM, St. Petersburg, Weather by CustomWeather, © 2014

Note: Actual official high and low records may vary slightly from our data, if they occured in-between our weather recording intervals... More about our weather records

Advertising

St. Petersburg weather history for previous 24 hours

 ConditionsComfort  
Time TempWeatherWind HumidityBarometerVisibility
1:53 PM
Dec 17
68 °FSunny.5 mph63%30.11 "Hg10 mi
12:53 PM67 °FSunny.5 mph73%30.15 "Hg10 mi
11:53 AM66 °FSunny.6 mph70%30.18 "Hg10 mi
10:53 AM66 °FOvercast.5 mph73%30.21 "Hg10 mi
9:53 AM65 °FOvercast.3 mph73%30.20 "Hg10 mi
8:53 AM64 °FOvercast.6 mph81%30.19 "Hg10 mi
7:53 AM64 °FOvercast.6 mph81%30.16 "Hg10 mi
6:53 AM64 °FPassing clouds.No wind84%30.15 "Hg10 mi
5:53 AM64 °FMostly cloudy.5 mph81%30.14 "Hg10 mi
4:53 AM66 °FPassing clouds.7 mph84%30.14 "Hg10 mi
3:53 AM63 °FPassing clouds.3 mph90%30.13 "Hg10 mi
2:53 AM63 °FPassing clouds.6 mph93%30.14 "Hg10 mi
1:53 AM64 °FClear.6 mph90%30.15 "Hg10 mi
12:53 AM63 °FClear.5 mph90%30.16 "Hg10 mi
11:53 PM
Dec 16
63 °FClear.3 mph90%30.17 "Hg10 mi
10:53 PM63 °FPassing clouds.3 mph90%30.18 "Hg10 mi
9:53 PM63 °FPassing clouds.5 mph87%30.17 "Hg10 mi
8:53 PM63 °FClear.3 mph87%30.16 "Hg10 mi
7:53 PM64 °FClear.6 mph84%30.16 "Hg10 mi
6:53 PM64 °FClear.5 mph81%30.16 "Hg10 mi
5:53 PM64 °FClear.3 mph81%30.15 "Hg10 mi
4:53 PM67 °FSunny.7 mph73%30.14 "Hg10 mi
3:53 PM68 °FSunny.9 mph70%30.14 "Hg10 mi
Weather by CustomWeather, © 2014

See weather overviewHow to use our weather pages